EW8004 Weather Reports


time (UTC)temp
C
wind
direction
speed
KPH
gust
KPH
rain 1hr
cm
rain 24hr
cm
rain mn
cm
humidity
%
barometer
mb
20260503200003 17 42 0.0 0.0 0.00 0.00 0.00 45 1018.6
20260503194505 17 188 0.0 0.0 0.00 0.00 0.00 49 1018.8
20260503193002 17 114 0.0 0.0 0.00 0.00 0.00 43 1019.0
20260503191501 17 163 0.0 0.0 0.00 0.00 0.00 41 1019.2
20260503184607 17 192 0.0 0.0 0.00 0.00 0.00 43 1019.5
20260503183057 17 138 0.0 0.0 0.00 0.00 0.00 44 1019.7
20260503181554 16 194 0.0 0.0 0.00 0.00 0.00 45 1019.9
20260503180059 16 5 0.0 0.0 0.00 0.00 0.00 44 1020.1
20260503174553 16 180 0.0 0.0 0.00 0.00 0.00 46 1020.3
20260503173049 16 189 0.0 0.0 0.00 0.00 0.00 44 1020.4
20260503171550 15 14 0.0 0.0 0.00 0.00 0.00 46 1020.6
20260503081531 3 65 0.0 0.0 0.00 0.00 0.00 92 1019.3
20260503071510 5 65 0.0 0.0 0.00 0.00 0.00 91 1018.7
20260503054611 6 65 0.0 0.0 0.00 0.00 0.00 90 1018.3
20260503053056 7 65 0.0 0.0 0.00 0.00 0.00 90 1018.3
20260503051555 7 65 0.0 0.0 0.00 0.00 0.00 90 1018.2
20260503050054 7 65 0.0 0.0 0.00 0.00 0.00 89 1018.2
20260503044552 7 65 0.0 0.0 0.00 0.00 0.00 88 1017.9
20260503043055 7 65 0.0 0.0 0.00 0.00 0.00 88 1017.7
20260503041548 7 65 0.0 0.0 0.00 0.00 0.00 89 1017.7
20260503040051 7 65 0.0 0.0 0.00 0.00 0.00 88 1017.7
20260503034548 7 65 0.0 0.0 0.00 0.00 0.00 88 1017.6
20260503033044 7 65 0.0 0.0 0.00 0.00 0.00 88 1017.5
20260503031544 7 65 0.0 0.0 0.00 0.00 0.00 88 1017.6
20260503030042 7 65 0.0 0.0 0.00 0.00 0.00 88 1017.4
20260503024541 7 65 0.0 0.0 0.00 0.00 0.00 88 1017.5
20260503023039 7 65 0.0 0.0 0.00 0.00 0.00 87 1017.3
20260503021537 7 65 0.0 0.0 0.00 0.00 0.00 86 1017.1
20260503020035 7 65 0.0 0.0 0.00 0.00 0.00 83 1016.9
20260503014532 8 65 0.0 0.0 0.00 0.00 0.00 82 1016.7
20260503013038 8 65 0.0 0.0 0.00 0.00 0.00 80 1016.5
20260503011530 9 65 0.0 0.0 0.00 0.00 0.00 78 1016.4
20260503010028 10 65 0.0 0.0 0.00 0.00 0.00 75 1016.2
20260503004533 10 65 0.0 0.0 0.00 0.00 0.00 74 1016.0
20260503003032 11 65 0.0 0.0 0.00 0.00 0.00 74 1015.8
20260503001524 11 65 0.0 0.0 0.00 0.00 0.00 71 1015.5
20260503000026 12 65 0.0 0.0 0.00 0.00 0.00 67 1015.3
20260502234535 12 65 0.0 0.0 0.00 0.00 0.00 64 1015.1
20260502233031 13 106 0.0 0.0 0.00 0.00 0.00 62 1015.0
20260502231521 13 106 0.0 0.0 0.00 0.00 0.00 61 1014.9
20260502230030 13 81 0.0 0.0 0.00 0.00 0.00 57 1014.9
20260502224520 13 81 0.0 0.0 0.00 0.00 0.00 60 1014.9
20260502223032 14 81 0.0 0.0 0.00 0.00 0.00 63 1014.7
20260502221520 14 82 0.0 0.0 0.00 0.00 0.00 62 1014.6
20260502220023 14 41 0.0 0.0 0.00 0.00 0.00 57 1014.3
20260502214518 15 41 0.0 0.0 0.00 0.00 0.00 58 1014.2
20260502213018 15 41 0.0 0.0 0.00 0.00 0.00 59 1014.1
20260502211518 15 41 0.0 0.0 0.00 0.00 0.00 57 1014.1
20260502210017 15 41 0.0 0.0 0.00 0.00 0.00 59 1014.0
20260502204516 15 103 0.0 0.0 0.00 0.00 0.00 47 1013.9
20260502203015 16 101 0.0 0.0 0.00 0.00 0.00 50 1014.1
20260502201516 16 80 0.0 0.0 0.00 0.00 0.00 50 1014.0